Flag for Nigeria Weather past 2 weeks in Enugu, Nigeria

Now
77 °F

Thunderstorms. Passing clouds.


Feels Like: 78 °F
Forecast: 74 / 89 °F
Wind: No wind

Location: Malabo/Fernando Poo

Current Time: Mar 28, 2015 at 2:47:55 AM

Latest Report: Mar 28, 2015 at 2:00 AM


Visibility: N/A

Pressure: 29.89 "Hg

Humidity: 94%

Dew point: 75 °F

Location of EnuguLocation

Historic Weather in Enugu — Graph

°F

Enugu temperature yesterday

Maximum temperature yesterday: 81 °F (at 12:00 AM)
Minimum temperature yesterday: 73 °F (at 10:00 AM)
Average temperature yesterday: 78 °F

Past Weeks' High & Low Weather Summary

 TemperatureHumidityPressure
High91 °F (Mar 13, 12:00 PM)100% (Mar 13, 6:00 AM)30.01 "Hg (Mar 13, 6:00 AM)
Low73 °F (Mar 16, 8:00 AM)63% (Mar 13, 12:00 PM)29.68 "Hg (Mar 14, 5:00 PM)
Average81 °F85%29.82 "Hg
* Reported Mar 13 4:00 AM — Mar 28 1:00 AM, Enugu, Weather by CustomWeather, © 2015

Note: Actual official high and low records may vary slightly from our data, if they occured in-between our weather recording intervals... More about our weather records

Advertising

Enugu weather history for previous 24 hours

 ConditionsComfort  
Time TempWeatherWind HumidityBarometerVisibility
1:00 AM
Sat, Mar 28
77 °FPassing clouds.No wind100%29.98 "HgN/A
12:00 AM77 °FPassing clouds.No wind100%29.98 "HgN/A
11:00 PM
Fri, Mar 27
77 °FPassing clouds.No wind94%30.01 "HgN/A
10:00 PM77 °FPassing clouds.No wind94%30.01 "HgN/A
9:00 PM77 °FPassing clouds.No wind94%29.98 "HgN/A
8:00 PM77 °FPassing clouds.No wind94%29.95 "HgN/A
6:00 PM81 °FPassing clouds.No wind89%29.89 "HgN/A
5:00 PM81 °FPassing clouds.No wind89%29.89 "HgN/A
4:00 PM77 °FPassing clouds.1 mph94%29.89 "HgN/A
2:00 PM77 °FThunderstorms. Broken clouds.No wind94%29.92 "Hg5 mi
1:00 PM77 °FThunderstorms. Broken clouds.3 mph100%29.95 "Hg4 mi
12:00 PM77 °FThunderstorms. Broken clouds.No wind100%30.01 "Hg4 mi
11:00 AM77 °FThunderstorms. Broken clouds.No wind94%30.01 "Hg5 mi
10:00 AM73 °FThunderstorms. Cloudy.2 mph100%30.01 "Hg3 mi
9:00 AM77 °FThunderstorms. Broken clouds.6 mph94%29.98 "Hg4 mi
8:00 AM77 °FThunderstorms. Broken clouds.No wind94%29.98 "Hg4 mi
6:00 AM79 °FThunderstorms. Partly cloudy.No wind89%29.92 "Hg5 mi
5:00 AM79 °FThunderstorms. Partly cloudy.No wind89%29.89 "HgN/A
4:00 AM79 °FThunderstorms. Partly cloudy.No wind89%29.86 "HgN/A
3:00 AM79 °FThunderstorms. Partly cloudy.15 mph89%29.89 "Hg4 mi
2:00 AM81 °FThunderstorms. Passing clouds.10 mph89%29.86 "HgN/A
Weather by CustomWeather, © 2015

See weather overviewHow to use our weather pages